Powrót do katalogu

ELEKTRON 3 DEB

AktywnyUNKNOWN
NORAD 831·DEBRIS·🇷🇺 Russia

Wystrzelony Jul 10, 1964 z Baikonur Cosmodrome

Loading…

Następne Przeloty (najbliższe 24 godziny)

TLE

ŚwieżeSource: Space-Track

Epoka: Sep 13, 2026, 10:58 UTC

1 00831U 64038C   26256.45739932  .00009217  00000-0  76077-3 0  9995
2 00831  60.6632 319.5181 1233512  73.1716 300.0659 12.85659963377270

Śledź ELEKTRON 3 DEB w czasie rzeczywistym z AllMySat

Download on the App Store